www.pogodaiklimat.ru

Погода и климат >> Архив погоды >> Китай >> Xin Barag Youqi


ПОГОДА в Xin Barag Youqi

  • Прогноз погоды в Xin Barag Youqi
  • Монитор погоды в Xin Barag Youqi
  • Климат города

АРХИВ ПОГОДЫ в Xin Barag Youqi

Время (UTC), дата Ветер
(напр.,м/с)
 
Видим.   Явления Облачность Т
(С)
Тd
(С)
f
(%)
Тe
(С)
Тes
(С)
Комфортность P
(гПа)
Po
(гПа)
Тmin
(С)
Tmax
(С)
R
(мм)
R24
(мм)
S
(см)
06 14.04 С 8 30 км ясно +3.1 -1.1 74 -3 -1 1019.0 952.5 -4.0
09 14.04 СЗ 8 30 км ясно +5.3 -5.7 45 0 +1 1017.6 1018.0
12 14.04 СЗ 8 30 км ясно +0.9 -4.1 69 -6 -6 1017.9 1040.1
15 14.04 СЗ 6 30 км ?/? -0.6 -5.4 70 -7 -7 1017.7 1018.0
18 14.04 З 6 30 км ?/? +0.4 -6.9 58 -6 -6 1017.0 950.9 +5.4
21 14.04 З 4 30 км ?/? -2.9 -6.2 78 -9 -9 1016.3 1016.0
00 15.04 З 3 27 км 1/1
[]
+0.4 -4.8 68 -4 -1 1016.2 949.9
03 15.04 ЮЗ 6 30 км ясно +7.0 -4.1 45 +3 +8 1013.9 926.2
06 15.04 Ю 5 30 км ясно +11.6 -8.8 23 +10 +16 1009.7 945.0 -3.5
09 15.04 Ю 4 30 км 3/3
[]
+13.4 -9.8 19 +12 +14 1006.4 1006.0
12 15.04 Ю 5 30 км 3/3
[]
+8.6 -4.9 38 +6 +6 1004.5 939.8
15 15.04 В 3 30 км ?/? +3.3 -3.3 62 -0 -0 1002.7 916.8
18 15.04 В 2 30 км ?/? -0.3 -3.0 82 -4 -4 1001.2 937.0 +13.6
21 15.04 СВ 4 30 км ?/? -1.5 -3.8 84 -7 -7 999.9 1000.0
00 16.04 В 4 30 км 4/4
[]
+1.7 -3.0 71 -3 -1 1000.9 936.6
03 16.04 В 4 30 км 6/6
[]
+8.0 -1.0 53 +5 +9 1000.2 914.7
06 16.04 В 2 30 км 4/4
[]
+12.2 0.0 43 +12 +19 999.0 935.0 -1.7
09 16.04 С 4 30 км 8/8
[]
+15.0 +2.5 43 +14 +15 998.3 998.0
12 16.04 С 8 30 км 9/9
[]
+11.7 -1.1 41 +9 +9 999.9 936.0
15 16.04 С 9 30 км ?/? +9.6 -2.0 44 +6 +6 1000.6 1001.0
18 16.04 С 9 30 км ?/? +7.5 -5.9 38 +3 +3 1001.2 1023.6 +15.2
21 16.04 С 8 30 км ?/? +2.4 -4.8 59 -4 -4 1003.6 1004.0
00 17.04 С 8 30 км 3/3
[]
+7.5 -3.4 46 +3 +4 1006.5 942.8
03 17.04 С 7 30 км ясно +14.4 -8.9 19 +13 +16 1007.5 922.5
06 17.04 С 6 30 км ясно +15.4 -8.1 19 +14 +19 1007.0 943.7 +2.3
09 17.04 З 1 30 км 5/5
[]
+15.6 -7.9 19 +17 +18 1006.6 1007.0
12 17.04 ЮВ 2 7000 м 9/9 1000 м
[]
+11.5 -4.2 33 +11 +11 1006.5 942.8
15 17.04 ЮЗ 1 23 км ?/? +7.4 -5.3 40 +7 +7 1005.9 920.7
18 17.04 СВ 1 26 км н/о +6.5 -3.4 49 +6 +6 1004.0 940.8 +15.9
21 17.04 В 2 30 км ?/? +6.8 -3.7 47 +5 +5 1002.6 1003.0
00 18.04 В 3 26 км 9/9 1000 м
[]
+7.6 -3.0 47 +5 +6 1002.1 938.7
03 18.04 В 7 30 км {ливн. осадки} 9/9 1000 м
[]
+7.1 +0.5 63 +3 +3 1001.7 1002.0
06 18.04 СВ 6 30 км слабый ливневой дождь 9/9 1000 м
[]
+8.1 +2.8 69 +4 +5 1002.5 938.6 +4.1 0.2
09 18.04 СВ 5 30 км {ливн. осадки} 9/9 1000 м
[]
+10.6 +1.7 54 +8 +8 1004.2 1004.0
12 18.04 СЗ 3 30 км {ливн. осадки} 1/1
[]
+6.2 +2.3 76 +3 +3 1006.6 942.3
15 18.04 З 2 30 км ?/? +2.9 +0.8 86 -0 -0 1008.6 1009.0
18 18.04 З 3 30 км ?/? +1.1 -0.2 91 -3 -3 1009.8 1031.9 +11.6
21 18.04 З 3 24 км н/о -0.1 -0.9 94 -5 -5 1010.5 1011.0
00 19.04 В 2 30 км 9/9
[]
+5.9 +2.5 79 +4 +4 1011.6 946.8
03 19.04 Ю 2 28 км 9/9
[]
+13.8 +2.7 47 +14 +15 1009.2 923.2
06 19.04 Ю 8 28 км 8/8
[]
+21.8 -5.1 16 +21 +21 комфорт 1003.9 940.8 -0.2
09 19.04 Ю 8
{17}
30 км 9/9
[]
+23.0 -5.9 14 +21 +21 комфорт 1000.3 1000.0
12 19.04 Ю 5
{17}
30 км 9/9
[]
+17.5 -5.1 21 +17 +17 999.4 936.6
15 19.04 С 8
{21}
30 км ?/? +7.0 +0.4 63 +2 +2 1000.4 1000.0
18 19.04 С 14
{21}
30 км ?/? +4.1 -0.5 72 -3 -3 1001.7 939.1 +23.4
21 19.04 С 15
{20}
30 км ?/? +2.9 -0.9 76 -5 -5 1004.5 1005.0
00 20.04 С 14
{20}
30 км 9/9
[]
+5.0 -1.5 63 -2 -2 1008.5 945.1
03 20.04 СВ 13
{19}
30 км 9/9
[]
+10.7 -8.5 25 +7 +7 1010.5 1011.0
06 20.04 С 10
{19}
30 км 9/9
[]
+12.8 -12.4 16 +10 +10 1010.9 1033.4 +2.6
09 20.04 С 12
{19}
30 км 9/9
[]
+11.4 -16.1 13 +8 +8 1012.8 1013.0
12 20.04 С 8 30 км 9/9
[]
+7.0 -11.7 25 +3 +3 1016.0 950.9
15 20.04 С 4 30 км ?/? +3.1 -10.2 37 -1 -1 1017.7 1018.0
18 20.04 С 5 30 км ?/? +1.9 -11.6 36 -3 -3 1019.9 954.9 +13.6
21 20.04 С 3 30 км ?/? +0.9 -11.5 39 -3 -3 1022.2 1022.0
00 21.04 В 6 30 км 3/3
[]
+5.6 -12.9 25 +2 +3 1024.2 958.7
03 21.04 В 6 30 км 1/1
[]
+9.1 -16.2 15 +6 +11 1024.7 1025.0

 

Местоположение метеостанции Xin Barag Youqi (Китай): широта 48.67 долгота 116.81 высота над уровнем моря 556 м.

В архиве по умолчанию представлена погода в Xin Barag Youqi за последнюю неделю. Архивные данные за месяц целиком и за предыдущие месяцы, начиная с января 2011 года, Вы можете получить, выбрав интересующий диапазон дат из раскрывающегося списка и нажав кнопку "Ввод!".


*Определитесь, кто Вы:
робот инопланетянин человек

Внимание! Время в таблицах - всемирное. Для получения местного времени необходимо прибавить поправку, которая в Xin Barag Youqi равна 8 ч.

Смотрите также архив погоды в соседних городах и на ближайших метеорологических станциях:

Погода в Забайкальске (Забайкальский край, Россия) (113 км)
Погода в Соловьевске (Забайкальский край, Россия) (159 км)
Погода в Кайластуе (Забайкальский край, Россия) (168 км)
Погода в Khalkh-Gol (Монголия) (177 км)
Погода в Choibalsan (Монголия) (179 км)
Погода в Matad (Монголия) (189 км)
Погода в Борзе (Забайкальский край, Россия) (194 км)
Погода в Dashbalbar (Монголия) (201 км)
Погода в Hailar (Китай) (223 км)
Погода в Бырке (Забайкальский край, Россия) (236 км)

Пояснения к столбцам:

Ветер - указаны скорость ветра в м/с - средняя за 10 мин, порывы в срок и между сроками (в фигурных скобках) и направление, откуда дует ветер: С - северный, СВ - северо-восточный, В - восточный, ЮВ - юго-восточный, Ю - южный, ЮЗ - юго-западный, З - западный, СЗ - северо-западный.
Видимость - горизонтальная дальность видимости в метрах или километрах. При видимости от 1 до 10 км при отсутствии осадков обычно наблюдается дымка, при ухудшении видимости до 1 км и менее - туман. В сухую погоду видимость может ухудшаться дымом, пылью или мглою.
Явления - указаны атмосферные явления, наблюдавшиеся в срок или в последний час перед сроком; фигурными скобками обозначены явления, наблюдавшиеся между сроками (за 1-3 часа до срока); квадратными скобками обозначены град или гололедные отложения с указанием их диаметра в мм.
Облачность - указаны через наклонную черту общая и нижняя облачность в баллах и высота нижней границы облаков в метрах; квадратными скобками обозначены формы облаков: Ci - перистые, Cs - перисто-слоистые, Cc - перисто-кучевые, Ac - высококучевые, As - высокослоистые, Sc - слоисто-кучевые, Ns - слоисто-дождевые, Cu - кучевые, Cb - кучево-дождевые. Подробнее классификацию облаков см. в Атласе облаков (PDF).
T - Температура воздуха - температура, измеренная на высоте 2 м над землей.
Td - Температура точки росы - температура, при понижении до которой содержащийся в воздухе водяной пар достигнет насыщения.
f - Относительная влажность воздуха - влажноcть воздуха, измеренная на высоте 2 м над землей.
Te - Эффективная температура - температура, которую ощущает одетый по сезону человек в тени. Характеристика душности погоды. При расчете учитывается влияние влажности воздуха и скорости ветра на теплоощущения человека.
Tes - Эффективная температура на солнце - температура, которую ощущает человек, с поправкой на солнечный нагрев. Характеристика знойности погоды. Зависит от высоты солнца над горизонтом, облачности и скорости ветра. Ночью, в пасмурную погоду, а также при ветре 12 м/с и более поправка равна нулю.
P - Атмосферное давление - приведенное к уровню моря атмосферное давление.
Po - Атмосферное давление - измеренное на уровне метеостанции атмосферное давление.
Tmin - Минимальная температура - минимум температуры воздуха на высоте 2 м над землей.
Tmax - Максимальная температура - максимум температуры воздуха на высоте 2 м над землей.
R - Количество осадков - Количество выпавших осадков за период времени, мм. При наведении курсора мыши на число - период времени, за который выпало указанное количество осадков.
R24 - Количество осадков - Количество выпавших осадков за 24 часа, мм.
S - Снежный покров - Высота снежного покрова, см. При наведении курсора мыши на число - состояние снежного покрова и степень покрытия местности в баллах.